[[{"header":{"parameterUnit":"m.s-1","parameterCategory":1,"la1":30.2991,"la2":30.254,"lo1":-89.0895,"lo2":-89.0444,"dy":0.0017,"dx":0.0017,"nx":28,"ny":28,"refTime":"2026-01-01T03:00:00:Z","depth":0,"parameterNumber":2,"parameterNumberName":"U-component_of_WINDS"},"data":[0,0,0,0,0,0,0,0,0,0,0,0,0,0,0,0,0,0,0,0,0,0,0,0,0,0,0,0,0,0,0,0,0,0,0,0,0,0,0,0,0,0,0,0,0,0,0,0,0,0,0,0,0,0,0,0,0,0,2.2982,2.2983,0,2.3062,2.3063,2.3064,2.3044,2.3042,2.304,2.3039,2.3123,2.3126,2.313,0,0,0,0,0,0,0,0,0,0,0,0,0,2.2813,2.2817,2.2982,2.2983,2.2984,2.3062,2.3063,2.3064,2.3044,2.3042,2.304,2.3038,2.3121,2.3126,2.313,0,0,0,0,0,0,0,0,0,0,0,0,0,2.2889,2.2818,2.2982,2.2983,2.2984,2.3062,2.3063,2.3064,2.3044,2.3042,2.3039,2.3037,2.312,2.3125,2.3131,2.3212,0,0,2.3148,2.315,0,0,0,0,0,0,0,0,2.2885,2.2896,2.2982,2.2983,2.2984,2.304,2.3034,2.3114,2.3045,2.3021,2.3039,2.3036,2.3097,2.3105,2.3125,2.3216,2.322,2.3148,2.3152,2.3154,2.3156,0,0,0,0,0,0,0,2.288,2.2892,2.3014,2.2983,2.2985,2.298,2.2989,2.3049,2.3072,2.3023,2.3022,2.3032,2.3097,2.3119,2.3127,2.3221,2.3148,2.3153,2.3156,2.3159,2.3384,2.3386,0,0,0,0,0,0,2.2873,2.2888,2.3011,2.3016,2.2928,2.2985,2.2994,2.3025,2.3071,2.3076,2.3034,2.303,2.3111,2.312,2.3129,2.3228,2.3154,2.3159,2.3162,2.3381,2.3384,2.3387,0,0,0,0,0,0,2.287,2.2885,2.3008,2.2952,2.2967,2.2991,2.3025,2.3028,2.3049,2.3079,2.3083,2.3052,2.311,2.3122,2.3192,2.3231,2.3162,2.3167,2.3378,2.3382,2.3386,2.3426,0,0,0,0,0,0,2.2865,2.2883,2.2914,2.2952,2.297,2.3068,2.3027,2.3031,2.3059,2.3056,2.3097,2.3101,2.3109,2.3184,2.3197,2.3237,2.3171,2.3375,2.338,2.3384,2.3421,2.3431,2.3439,0,0,0,0,0,2.2859,2.2922,2.2916,2.2931,2.3009,2.3071,2.3081,2.3087,2.3062,2.3093,2.3112,2.31,2.3224,2.3191,2.3206,2.3248,2.3372,2.3378,2.3384,2.3417,2.3429,2.3439,0,0,0,0,0,0,2.2889,2.2927,2.292,2.2998,2.3031,2.3067,2.3107,2.3099,2.3141,2.3136,2.3143,2.3152,2.3224,2.3243,2.3205,2.333,2.3295,2.3304,2.3314,2.3326,2.3334,2.3328,2.3176,0,0,0,0,0,2.2904,2.295,2.2982,2.3048,2.3064,2.3083,2.311,2.3112,2.3147,2.3161,2.3185,2.322,2.3266,2.3297,2.3342,2.3424,2.3433,2.346,2.3469,2.3476,2.3484,2.3529,2.3542,2.3407,2.3407,2.3407,0,0,2.2937,2.2964,2.2992,2.3054,2.308,2.3128,2.3095,2.3147,2.3184,2.3169,2.3237,2.3256,2.3295,2.3371,2.3406,2.3389,2.3524,2.3484,2.3489,2.3493,2.3537,2.355,2.3561,2.3411,2.341,2.3409,0,0,2.302,2.3045,2.3103,2.3129,2.3169,2.3181,2.3195,2.3232,2.3244,2.3312,2.3302,2.3345,2.3426,2.3454,2.3479,2.3574,2.3565,2.3589,2.3635,2.3679,2.369,2.3699,2.3734,2.3746,2.3597,2.3597,2.3597,0,2.3056,2.3128,2.3133,2.3187,2.3215,2.3203,2.3262,2.3288,2.334,2.336,2.334,2.3441,2.3466,2.3549,2.3573,2.3593,2.361,2.3584,2.3688,2.3697,2.3706,2.3739,2.3752,2.3599,2.3599,2.3599,2.3599,0,2.317,2.322,2.3262,2.3312,2.3345,2.3401,2.3415,2.3447,2.3447,2.3461,2.353,2.3561,2.3611,2.3631,2.3631,2.3715,2.3703,2.3686,2.3651,2.3722,2.3753,2.3765,2.3603,2.3602,2.3602,2.3601,0,0,2.3274,2.3327,2.3342,2.3365,2.3408,2.3448,2.3503,2.3552,2.358,2.3617,2.3664,2.3732,2.3716,2.3745,2.3748,2.3787,2.3861,2.3765,2.3766,2.3782,2.3955,2.3968,2.3983,2.3855,2.3857,2.3859,2.3952,0,2.3362,2.346,2.3466,2.3555,2.3601,2.3592,2.364,2.3672,2.3687,2.3729,2.3746,2.3794,2.377,2.3787,2.3825,2.3844,2.3896,2.3837,2.39,2.3902,2.389,2.3999,2.4013,2.4099,2.3964,2.3966,2.3968,0,2.3478,2.3518,2.361,2.3647,2.3667,2.3711,2.3756,2.3797,2.3833,2.3841,2.3873,2.3871,2.3929,2.3892,2.3972,2.3932,2.3958,2.3971,2.3975,2.3981,2.3939,2.4008,2.4126,2.414,2.3987,2.3985,2.3984,0,2.3545,2.3622,2.3687,2.3707,2.3752,2.3783,2.3803,2.3837,2.3866,2.3906,2.3926,2.3972,2.3998,2.4035,2.4046,2.4017,2.4126,2.4089,2.4135,2.4135,2.4158,2.4156,2.4282,2.4174,2.4174,2.4174,2.4174,0,2.3642,2.37,2.3718,2.3759,2.3823,2.383,2.3894,2.3912,2.3942,2.3987,2.3981,2.4023,2.4035,2.4079,2.4088,2.4153,2.4165,2.4174,2.4176,2.4174,2.4173,2.4192,2.4186,2.4177,2.4177,2.4176,2.4175,0,2.3728,2.3743,2.3814,2.385,2.3861,2.3906,2.3938,2.3977,2.3991,2.4047,2.4061,2.4083,2.4135,2.415,2.4212,2.4218,2.4295,2.4291,2.4283,2.4283,2.4327,2.4323,2.4469,2.4489,2.4368,2.4369,2.437,0,2.3789,2.3833,2.3874,2.3903,2.3925,2.3972,2.4001,2.4011,2.4042,2.4087,2.4121,2.4172,2.4213,2.4297,2.4319,2.4367,2.4364,2.4412,2.4371,2.4369,2.4365,2.4363,2.4367,2.442,2.4421,2.4422,2.4423,0,2.3896,2.3902,2.3945,2.3991,2.4027,2.4063,2.4099,2.4123,2.4137,2.4173,2.4226,2.4258,2.4321,2.4372,2.442,2.4442,2.4435,2.4436,2.4449,2.4448,2.4442,2.4446,2.4304,2.4432,2.4432,2.4431,2.443,2.443,2.3972,2.401,2.4046,2.4094,2.4122,2.4155,2.4194,2.4213,2.4257,2.4309,2.4312,2.4369,2.4405,2.4469,2.4493,2.4539,2.4525,2.4543,2.4548,2.4553,2.4557,2.4434,2.4548,2.4547,2.4547,2.4547,2.4547,0,2.4079,2.4101,2.4146,2.4195,2.4233,2.4224,2.4262,2.4295,2.4346,2.4379,2.442,2.4481,2.4531,2.4557,2.4606,2.4638,2.4636,2.465,2.4648,2.4654,2.4566,2.455,2.4651,2.4651,2.4651,2.4651,2.4651,2.4651,2.4139,2.4204,2.4214,2.4293,2.4315,2.4371,2.4394,2.4425,2.4452,2.452,2.4561,2.4578,2.4609,2.4661,2.4706,2.4712,2.4731,2.4747,2.4752,2.467,2.466,2.4649,2.4634,2.4751,2.4751,2.4835,2.4836,2.4837]},{"header":{"parameterUnit":"m.s-1","parameterCategory":1,"la1":30.2991,"la2":30.254,"lo1":-89.0895,"lo2":-89.0444,"dy":0.0017,"dx":0.0017,"nx":28,"ny":28,"refTime":"2026-01-01T03:00:00:Z","depth":0,"parameterNumber":3,"parameterNumberName":"V-component_of_WINDS"},"data":[0,0,0,0,0,0,0,0,0,0,0,0,0,0,0,0,0,0,0,0,0,0,0,0,0,0,0,0,0,0,0,0,0,0,0,0,0,0,0,0,0,0,0,0,0,0,0,0,0,0,0,0,0,0,0,0,0,0,6.576,6.5761,0,6.5915,6.5916,6.5918,6.5915,6.5913,6.591,6.5908,6.6064,6.607,6.6076,0,0,0,0,0,0,0,0,0,0,0,0,0,6.5457,6.5463,6.5759,6.5761,6.5763,6.5914,6.5917,6.5919,6.5915,6.5912,6.591,6.5908,6.6062,6.6069,6.6076,0,0,0,0,0,0,0,0,0,0,0,0,0,6.5598,6.5464,6.5759,6.578,6.5783,6.5914,6.5917,6.5919,6.5916,6.5912,6.5909,6.5906,6.6059,6.6068,6.6077,6.6196,0,0,6.6105,6.6109,0,0,0,0,0,0,0,0,6.559,6.5609,6.5775,6.5779,6.5783,6.5892,6.5867,6.6012,6.5916,6.5865,6.5908,6.5905,6.6009,6.6022,6.6058,6.6204,6.621,6.6106,6.6111,6.6115,6.6118,0,0,0,0,0,0,0,6.558,6.5602,6.5821,6.5777,6.5782,6.578,6.5797,6.5894,6.5953,6.5869,6.587,6.5888,6.601,6.6049,6.6061,6.6213,6.6106,6.6114,6.6119,6.6123,6.6466,6.6469,0,0,0,0,0,0,6.5566,6.5594,6.5816,6.5825,6.5677,6.5788,6.5807,6.586,6.5952,6.5963,6.5891,6.5887,6.6035,6.6051,6.6067,6.6214,6.6115,6.6124,6.6129,6.6462,6.6467,6.6471,0,0,0,0,0,0,6.556,6.5586,6.581,6.571,6.5738,6.5797,6.5857,6.5865,6.5904,6.5968,6.5978,6.592,6.6033,6.6054,6.6165,6.6219,6.6128,6.6136,6.6458,6.6464,6.6469,6.6509,0,0,0,0,0,0,6.5551,6.5584,6.563,6.5711,6.5744,6.5906,6.586,6.587,6.592,6.5917,6.5998,6.6008,6.6032,6.6151,6.6174,6.623,6.6143,6.6453,6.6461,6.6467,6.6503,6.6515,6.6525,0,0,0,0,0,6.554,6.5634,6.5633,6.566,6.5803,6.5909,6.5928,6.5955,6.5924,6.5971,6.6013,6.6005,6.621,6.6163,6.6188,6.6248,6.645,6.6459,6.6466,6.6498,6.6512,6.6525,0,0,0,0,0,0,6.5556,6.5645,6.5644,6.5767,6.5831,6.5908,6.5968,6.5969,6.6042,6.6036,6.6065,6.6084,6.6195,6.6232,6.6178,6.6369,6.6326,6.634,6.6341,6.6356,6.6366,6.6356,6.6151,0,0,0,0,0,6.5575,6.5655,6.5727,6.5828,6.586,6.5909,6.5956,6.5972,6.6038,6.6065,6.6114,6.6178,6.6257,6.6308,6.6384,6.6508,6.6526,6.6562,6.6573,6.6582,6.6593,6.6664,6.6681,6.6498,6.6497,6.6497,0,0,6.5612,6.5671,6.5719,6.5833,6.5884,6.5966,6.5931,6.6018,6.6079,6.6077,6.6186,6.6225,6.6298,6.6417,6.6471,6.6451,6.6648,6.6592,6.6599,6.6606,6.6674,6.6691,6.6706,6.6503,6.6502,6.6501,0,0,6.5723,6.5775,6.5866,6.5919,6.5997,6.6029,6.6051,6.6129,6.6155,6.6265,6.6266,6.6338,6.6472,6.6525,6.657,6.6702,6.6699,6.6726,6.6785,6.6853,6.6867,6.688,6.6929,6.6946,6.6737,6.6737,6.6737,0,6.576,6.5884,6.5912,6.6001,6.6052,6.6055,6.6148,6.6197,6.6295,6.633,6.6306,6.6477,6.6526,6.6658,6.6691,6.6726,6.6752,6.6717,6.6863,6.6876,6.6889,6.6936,6.6954,6.674,6.674,6.674,6.6739,0,6.5926,6.6012,6.6075,6.6173,6.6231,6.6321,6.6362,6.6417,6.6428,6.6462,6.6574,6.6634,6.6723,6.6755,6.6765,6.6889,6.6875,6.6857,6.6814,6.6909,6.6953,6.6971,6.6744,6.6743,6.6742,6.6742,0,0,6.605,6.6164,6.6187,6.6233,6.632,6.6387,6.6477,6.6566,6.6613,6.668,6.6757,6.6872,6.6857,6.6907,6.6924,6.6983,6.7087,6.6958,6.696,6.6981,6.7228,6.7242,6.7262,6.7085,6.7088,6.7091,6.7223,0,6.6172,6.6334,6.6363,6.6504,6.6584,6.659,6.6669,6.6731,6.6765,6.6838,6.6875,6.6957,6.693,6.696,6.702,6.7062,6.7137,6.7052,6.7156,6.716,6.714,6.7286,6.73,6.7422,6.724,6.7243,6.7245,0,6.6334,6.6409,6.6559,6.6638,6.6673,6.6743,6.6828,6.6897,6.6968,6.6989,6.7046,6.7056,6.715,6.7103,6.7233,6.7175,6.7219,6.7246,6.7251,6.7263,6.7209,6.7302,6.7461,6.748,6.7272,6.727,6.7268,0,6.6413,6.655,6.6659,6.6697,6.6791,6.6841,6.6882,6.695,6.7002,6.7075,6.7109,6.7192,6.7237,6.7301,6.7333,6.7295,6.7461,6.7416,6.7482,6.7481,6.7517,6.7514,6.7686,6.7543,6.7543,6.7543,6.7542,0,6.6546,6.6637,6.6696,6.6762,6.6865,6.6897,6.6998,6.7038,6.7099,6.7173,6.7182,6.7251,6.7289,6.7363,6.7389,6.7493,6.7513,6.7533,6.7539,6.7533,6.7531,6.7563,6.7556,6.7547,6.7546,6.7545,6.7545,0,6.6651,6.6693,6.6812,6.6892,6.6914,6.6987,6.7055,6.712,6.7155,6.7249,6.7272,6.7327,6.7415,6.7454,6.7562,6.7579,6.77,6.7698,6.7677,6.7679,6.7743,6.7737,6.7943,6.7972,6.7808,6.781,6.7811,0,6.6733,6.6805,6.6893,6.6945,6.6988,6.707,6.7124,6.7158,6.7214,6.7301,6.7355,6.7444,6.7518,6.7659,6.7708,6.7791,6.7793,6.7859,6.7805,6.7798,6.7796,6.7792,6.78,6.7869,6.7871,6.7872,6.7873,0,6.6876,6.6894,6.6972,6.7059,6.7124,6.7193,6.726,6.7301,6.7346,6.7408,6.75,6.7557,6.7669,6.7757,6.7844,6.7885,6.7888,6.789,6.791,6.7905,6.789,6.7901,6.7705,6.7885,6.7884,6.7883,6.7882,6.7882,6.6974,6.7038,6.7112,6.7199,6.7254,6.7317,6.7383,6.7427,6.7504,6.7599,6.7614,6.7713,6.7782,6.7899,6.7944,6.8022,6.8005,6.8033,6.8041,6.8048,6.8053,6.7877,6.8037,6.8037,6.8037,6.8036,6.8036,0,6.7119,6.7167,6.7247,6.7342,6.7411,6.7408,6.7483,6.754,6.7627,6.7693,6.7766,6.7872,6.7958,6.8014,6.8102,6.8153,6.8156,6.8175,6.8172,6.8182,6.8062,6.8037,6.8171,6.8171,6.8171,6.8171,6.8171,6.8171,6.7202,6.7312,6.7339,6.7476,6.7523,6.7621,6.7664,6.7722,6.7775,6.7894,6.7967,6.8003,6.8066,6.8158,6.8237,6.8251,6.8284,6.8304,6.8317,6.8204,6.819,6.8177,6.8153,6.831,6.831,6.8432,6.8433,6.8434]}]]